sat.trackr.live / text

‹ back to catalog

STARLINK-5675

NORAD 55340 · 2023-013K

PAYLOAD ACTIVE UNKNOWN

§ Identity

Operator
Country
US
Launch date
2023-01-26
Launch site
AFETR
Launch vehicle
Mass (kg)
RCS (m²)

Purposes: comms

External: N2YO · Heavens-Above · Gunter

§ Orbital elements

Epoch: 2026-05-24T12:30:39.710016Z

Period
94.27 min
Inclination
43.0027°
Eccentricity
0.0001785
Mean motion
15.27571284 rev/d
Perigee alt
481.9 km
Apogee alt
484.3 km
Semi-major
6,861.2 km
B*
7.2341e-5
RAAN
234.9197°
Arg perigee
271.4059°
Mean anomaly
88.6589°
Rev number
18,327

§ Raw data

STARLINK-56751 55340U 23013K   26144.52129294  .00001728  00000+0  72341-4 0  99952 55340  43.0027 234.9197 0001785 271.4059  88.6589 15.27571284183276

JSON: /api/v1/satellites/55340 · /tle

For live sub-satellite position, see the globe view (requires WebGL).

§ Visibility from observer

Set your observer location to see the next 7 days of passes ≥ 10°. The values pass through the URL so the page stays shareable.

No JS? Fill the form by hand. The geolocation button needs JavaScript.